Hourly Data Report for July 28, 2017

PITT MEADOWS CS
BRITISH COLUMBIA

49°12'29.964" N
122°41'24.076" W
5.00 m
1106178
71775
WMM

Download Data

Hourly Data (July 2017)
Hourly Data Report for July 28, 2017
TIME
LST
Temp Definition
°C
Dew Point Definition
°C
Rel Hum Definition
%
Precip. Amount Definition
mm

Wind Dir Definition
10's deg

Wind Spd Definition
km/h
Visibility Definition
km
Stn Press Definition
kPa
Hmdx Definition


Wind Chill Definition


Weather Definition


00:00 14.3 10.7 79 0.0   0   101.84     LegendNANA
01:00 13.5 10.8 84 0.0 10 1   101.85     LegendNANA
02:00 12.6 10.3 86 0.0   0   101.88     LegendNANA
03:00 12.7 10.8 89 0.0 0 1   101.87     LegendNANA
04:00 11.5 9.3 86 0.0 0 1   101.89     LegendNANA
05:00 12.0 10.3 89 0.0 5 2   101.90     LegendNANA
06:00 14.6 11.5 82 0.0 10 2   101.91     LegendNANA
07:00 16.1 11.1 72 0.0 13 3   101.93     LegendNANA
08:00 17.7 11.3 66 0.0 17 4   101.93     LegendNANA
09:00 18.6 11.5 63 0.0 22 6   101.92     LegendNANA
10:00 20.6 12.2 58 0.0 23 6   101.89     LegendNANA
11:00 21.9 11.9 53 0.0 18 5   101.87     LegendNANA
12:00 23.0 12.6 52 0.0 18 6   101.83 26   LegendNANA
13:00 23.5 11.8 48 0.0 21 8   101.79 26   LegendNANA
14:00 23.9 11.2 45 0.0 20 8   101.78 26   LegendNANA
15:00 24.4 11.0 43 0.0 20 8   101.75 26   LegendNANA
16:00 24.5 11.3 44 0.0 18 8   101.70 26   LegendNANA
17:00 24.2 12.8 49 0.0 17 8   101.69 27   LegendNANA
18:00 23.8 12.5 49 0.0 18 8   101.68 26   LegendNANA
19:00 22.3 12.4 54 0.0 19 6   101.67 25   LegendNANA
20:00 20.5 12.7 61 0.0 19 4   101.68     LegendNANA
21:00 18.7 12.8 68 0.0 0 1   101.73     LegendNANA
22:00 17.2 12.8 76 0.0 13 3   101.76     LegendNANA
23:00 16.6 13.2 81 0.0 11 3   101.77     LegendNANA

Notes on Data Quality.

Legend

  • E = Estimated
  • M = Missing
  • NA = Not Available*
  • [empty] = Indicates an unobserved value
Date modified: